Tracking 35030 objects as of 11-Aug-2026
HD Live streaming from Space Station
objects crossing your sky now

CZ-3C DEB


NORAD ID: 40205
Int'l Code: 2012-008Q
Launch date: February 24, 2012
Source: People's Republic of China (PRC)
Launch site: Xichang Space Center, China (XSC)

Note: This is SATELLITE DEBRIS
Your satellite tracking list
Your tracking list is empty




NASA's NSSDC Master Catalog

Two Line Element Set (TLE):
1 40205U 12008Q   24265.92567385 -.00000044  00000-0  00000-0 0  9995
2 40205  20.6610  67.0272 7015375 195.0549 122.0798  2.19542354  3268
Source of the keplerian elements: AFSPC